Regional Weather Roundup
Issued by NWS Mobile, AL

Home | Current Version | Previous Version | Text Only | Print | Product List | Glossary On
Versions: 1 2 3 4 5 6 7 8 9 10 11 12 13 14 15 16 17 18 19 20 21 22 23 24 25 26 27
000
ASUS44 KMOB 261312
RWRMOB
REGIONAL WEATHER ROUNDUP
NATIONAL WEATHER SERVICE MOBILE AL
800 AM CDT THU MAY 26 2016

NOTE: "FAIR" INDICATES FEW OR NO CLOUDS BELOW 12,000 FEET WITH NO
      SIGNIFICANT WEATHER AND/OR OBSTRUCTIONS TO VISIBILITY.

  * THESE STATIONS ARE PART OF THE UNIVERSITY OF SOUTH ALABAMA
    MESONET AND ARE NOT UNDER NWS OR FAA QUALITY CONTROL.

ALZ061>064-261400-
COASTAL ALABAMA

CITY           SKY/WX    TMP DP  RH WIND       PRES   REMARKS
MOBILE REG APT PTSUNNY   73  71  93 E5        30.15S
BROOKLEY FIELD MOSUNNY   75  72  90 E8        30.14F
USA CAMPUS*    NOT AVBL
DOG RIVER*     NOT AVBL


CITY           SKY/WX    TMP DP  RH WIND       PRES   REMARKS
MOUNT VERNON*  NOT AVBL
SARALAND*      NOT AVBL
BAY MINETTE*   NOT AVBL
LOXLEY*        NOT AVBL
ROBERTSDALE*   NOT AVBL
FAIRHOPE*      NOT AVBL
ELBERTA*       NOT AVBL
FOLEY*         NOT AVBL
GRAND BAY*     NOT AVBL
DAUPHIN ISLND* NOT AVBL
BON SCOUR NWR* NOT AVBL
GULF SHORES    CLOUDY    73  72  99 NE6       30.14S

$$

ALZ051>060-261400-
INTERIOR SOUTHWEST AND SOUTH CENTRAL ALABAMA

CITY           SKY/WX    TMP DP  RH WIND       PRES   REMARKS
GREENVILLE     CLOUDY    71  67  87 CALM      30.18R FOG
EVERGREEN      CLOUDY    70  67  90 CALM      30.18R
CASTLEBERRY*   NOT AVBL
ATMORE*        NOT AVBL
DIXIE*         NOT AVBL
ANDALUSIA/OPP  FOG       74  70  87 E5        30.18R VSB 1/4
ANDALUSIA*     NOT AVBL
FLORALA APT    CLOUDY    72  70  94 SE5       30.20R FOG
FLORALA*       NOT AVBL

$$

FLZ001>006-261400-
WESTERN FLORIDA PANHANDLE

CITY           SKY/WX    TMP DP  RH WIND       PRES   REMARKS
PENSACOLA      CLOUDY    78  71  79 SE7       30.15R
NAS PENSACOLA  CLOUDY    78  71  79 S8        30.14S
MILTON         PTSUNNY   72  71  97 CALM      30.16R
WHTNG S FIELD  PTSUNNY   74  71  91 E3        30.16R


CITY           SKY/WX    TMP DP  RH WIND       PRES   REMARKS
WALNUT HILL*   NOT AVBL
JAY*           NOT AVBL
DUKE FIELD     CLOUDY    73  72  94 E6        30.16R
CRESTVIEW      FOG       71  70  96 E3        30.19R VSB 1
VALPARAISO     PTSUNNY   75  71  87 E5        30.16R
DESTIN         PTSUNNY   79  74  84 SE7       30.16R

$$

MSZ076-079-261400-
INTERIOR SOUTHEAST MISSISSIPPI

CITY           SKY/WX    TMP DP  RH WIND       PRES   REMARKS
LEAKESVILLE*   NOT AVBL
AGRICOLA*      NOT AVBL

$$

MARINE OBSERVATIONS

STATION/POSITION TIME  TEMP    WIND        PRES    WAVE
                       AIR SEA DIR/SP/G            HT/PER
                 (UTC) (F)     (DEG/KT/KT) (MB)    (FT/S)
PASCAGOULA       1200   73      80/  5/  6 1019.5F
PETIT BOIS ISLND 1200   76      90/  5/  6 1020.5R
GRAND BAY        1100   70     360/  4     1021.0S
KATRINA CUT      1200   77     150/  3     1021.0R
CEDAR POINT      1200   76     150/  3     1020.3R
E DAUPHIN ISLAND 1300   77     120/  8/  9 1020.1F
MIDDLE BAY LIGHT 1200   76     100/  4     1020.6R
USCG MOBILE BAY  1200   72 79   70/  3/  3 1021.3R
STATE DOCKS      1200   72 80              1020.7R
MEAHER PARK      1200   70      20/  3     1020.6R
WEEKS BAY        1100   67                   N/A
FORT MORGAN      1200   76     150/  3/  4 1020.1R
12 S ORANGE BCH  1250   78 79  140/  8/ 10 1019.8F   1/ 5
PENSACOLA BAY    1200      80  170/  5/  6 1021.0R
64 S DAUPHIN ISL 1300   78 78  120/  6/  8 1020.0S

$$

SELECTED LOCATIONS ACROSS THE REGION

CITY           SKY/WX    TMP DP  RH WIND       PRES   REMARKS
NEW ORLEANS    PTSUNNY   80  73  79 E6        30.10S
GULFPORT       MOSUNNY   77  70  79 CALM      30.12R
PASCAGOULA AP  PTSUNNY   73  70  90 CALM      30.13S
PASCAGOULA*    NOT AVBL
HATTIESBURG    CLOUDY    71  67  87 S3        30.15R
LAUREL         CLOUDY    72  64  78 CALM      30.16R
MERIDIAN       NOT AVBL
JACKSON        CLOUDY    77  70  79 S6        30.10F
MONTGOMERY     SUNNY     75  67  76 CALM      30.17R
TROY           MOSUNNY   75  69  81 CALM      30.19R
KINSTON*       NOT AVBL
GENEVA*        NOT AVBL
ASHFORD*       NOT AVBL
DOTHAN         SUNNY     75  69  81 SE6       30.22S
PANAMA CITY    MOSUNNY   74  71  91 E3        30.16R

$$





USA.gov is the U.S. government's official web portal to all federal, state and local government web resources and services.